Tracking 25709 objects as of 25-May-2022
HD Live streaming from Space Station
objects crossing your sky now

ONEWEB-0362

Track ONEWEB-0362 now!
10-day predictions
ONEWEB-0362 is classified as:


NORAD ID: 49288
Int'l Code: 2021-090K
Perigee: 1,191.2 km
Apogee: 1,194.4 km
Inclination: 87.9 °
Period: 109.1 minutes
Semi major axis: 7563 km
RCS: Unknown
Launch date: October 14, 2021
Source: United Kingdom (UK)
Launch site: VOSTOCHNY COSMODROME (VOSTO)
aabbcc
Your satellite tracking list
Your tracking list is empty




NASA's NSSDC Master Catalog

Two Line Element Set (TLE):
1 49288U 21090K   22144.91667824 -.00042897  00000-0 -10766+0 0  9990
2 49288  87.9232 239.9550 0002104  90.3648 284.6150 13.19743210  1305
Source of the keplerian elements: AFSPC